Abingdon, VA

3:32 AM EDT on April 24, 2017 (GMT -0400)
Virginia Highlands

Weather History for KVJI - February, 2014

Change the Weather History Date:

Thursday, February 27, 2014

  Actual Average (KTRI) Record (KTRI)
Temperature  
Mean Temperature 30 °F -  
Max Temperature 40 °F 51 °F 74 °F (1996)
Min Temperature 19 °F 30 °F 2 °F (1963)
Degree Days  
Heating Degree Days 36    
Moisture  
Dew Point 5 °F    
Average Humidity 40    
Maximum Humidity 67    
Minimum Humidity 20    
Precipitation  
Precipitation 0.00 in - - ()
Sea Level Pressure  
Sea Level Pressure 29.87 in    
Wind  
Wind Speed 8 mph (WNW)    
Max Wind Speed 18 mph    
Max Gust Speed 25 mph    
Visibility 10 miles    
Events      
Averages and records for this station are not official NWS values.
T = Trace of Precipitation, MM = Missing Value Source: NWS Daily Summary

Daily Weather History Graph

Daily Weather History Graph

Search for Another Location

Airport or City:

Trip Planner

Search our weather history database for the weather conditions in past years. The results will help you decide how hot, cold, wet, or windy it might be!

Date:

Astronomy

Feb. 27, 2014 Rise Set
Actual Time 7:01 AM EST 6:20 PM EST
Civil Twilight 6:35 AM EST 6:46 PM EST
Nautical Twilight 6:05 AM EST 7:16 PM EST
Astronomical Twilight 5:35 AM EST 7:46 PM EST
Moon 5:30 AM EST (2/27) 4:46 PM EST (2/27)
Length of Visible Light 12h 11m
Length of Day
11h 19m
Waning Crescent, 4% of the Moon is Illuminated
Feb 27
Waning Crescent
Mar 1
New
Mar 8
First Quarter
Mar 16
Full
Mar 23
Last Quarter

Hourly Weather History & Observations

Time (EST) Temp. Windchill Dew Point Humidity Pressure Visibility Wind Dir Wind Speed Gust Speed Precip Events Conditions
12:00 AM 22.1 °F 15.9 °F 12.7 °F 67% 29.84 in 10.0 mi West 4.6 mph - N/A   Clear
12:15 AM 22.8 °F 16.7 °F 12.4 °F 64% 29.83 in 10.0 mi West 4.6 mph - N/A   Clear
12:35 AM 22.6 °F 16.5 °F 12.9 °F 66% 29.83 in 10.0 mi West 4.6 mph - N/A   Clear
12:55 AM 22.1 °F 15.9 °F 12.2 °F 66% 29.84 in 10.0 mi West 4.6 mph - N/A   Clear
1:15 AM 22.1 °F 13.7 °F 11.5 °F 64% 29.84 in 7.0 mi West 6.9 mph - N/A   Clear
1:35 AM 22.3 °F 14.9 °F 11.3 °F 63% 29.83 in 10.0 mi West 5.8 mph - N/A   Clear
1:55 AM 21.7 °F 15.5 °F 11.3 °F 64% 29.83 in 10.0 mi West 4.6 mph - N/A   Clear
2:15 AM 21.6 °F 14.0 °F 10.9 °F 64% 29.83 in 10.0 mi West 5.8 mph - N/A   Clear
2:35 AM 21.6 °F 14.0 °F 10.4 °F 62% 29.82 in 10.0 mi West 5.8 mph - N/A   Clear
2:55 AM 21.6 °F 13.0 °F 9.7 °F 60% 29.81 in 10.0 mi West 6.9 mph - N/A   Clear
3:15 AM 21.7 °F 14.3 °F 9.0 °F 58% 29.81 in 10.0 mi West 5.8 mph - N/A   Clear
3:35 AM 21.9 °F 13.4 °F 7.9 °F 55% 29.81 in 10.0 mi West 6.9 mph - N/A   Clear
3:55 AM 22.1 °F 12.8 °F 7.7 °F 54% 29.82 in 10.0 mi WNW 8.1 mph - N/A   Clear
4:15 AM 21.9 °F 12.5 °F 7.7 °F 54% 29.82 in 10.0 mi WNW 8.1 mph - N/A   Clear
4:40 AM 21.6 °F 13.0 °F 7.5 °F 55% 29.82 in 10.0 mi West 6.9 mph - N/A   Clear
4:55 AM 21.7 °F 11.5 °F 7.5 °F 54% 29.83 in 10.0 mi West 9.2 mph - N/A   Clear
5:15 AM 21.2 °F 10.9 °F 7.3 °F 55% 29.82 in 10.0 mi West 9.2 mph - N/A   Clear
5:35 AM 21.2 °F 9.5 °F 7.0 °F 54% 29.83 in 10.0 mi West 11.5 mph - N/A   Clear
5:55 AM 21.0 °F 9.3 °F 7.2 °F 55% 29.83 in 10.0 mi West 11.5 mph - N/A   Clear
6:15 AM 20.7 °F 9.5 °F 6.8 °F 55% 29.83 in 10.0 mi West 10.4 mph 16.1 mph N/A   Clear
6:35 AM 20.3 °F 9.0 °F 6.4 °F 55% 29.84 in 10.0 mi West 10.4 mph - N/A   Clear
6:55 AM 19.9 °F 8.6 °F 5.9 °F 55% 29.85 in 10.0 mi West 10.4 mph - N/A   Clear
7:15 AM 19.4 °F 6.6 °F 5.9 °F 56% 29.85 in 10.0 mi West 12.7 mph 16.1 mph N/A   Clear
7:35 AM 19.8 °F 8.3 °F 5.7 °F 55% 29.86 in 10.0 mi West 10.4 mph - N/A   Clear
7:55 AM 20.8 °F 9.7 °F 5.2 °F 51% 29.86 in 10.0 mi West 10.4 mph 17.3 mph N/A   Clear
8:15 AM 21.6 °F 9.3 °F 5.4 °F 50% 29.87 in 10.0 mi West 12.7 mph 19.6 mph N/A   Clear
8:35 AM 22.3 °F 9.7 °F 4.1 °F 46% 29.87 in 10.0 mi West 13.8 mph 23.0 mph N/A   Clear
8:55 AM 23.0 °F 11.7 °F 3.4 °F 43% 29.88 in 10.0 mi West 11.5 mph 19.6 mph N/A   Clear
9:15 AM 23.7 °F 12.1 °F 3.2 °F 41% 29.89 in 10.0 mi West 12.7 mph 19.6 mph N/A   Clear
9:35 AM 24.6 °F 14.4 °F 3.9 °F 41% 29.88 in 10.0 mi West 10.4 mph - N/A   Clear
9:55 AM 25.5 °F 13.8 °F 3.6 °F 39% 29.88 in 10.0 mi West 13.8 mph 19.6 mph N/A   Clear
10:15 AM 26.6 °F 15.2 °F 1.8 °F 34% 29.88 in 10.0 mi West 13.8 mph 20.7 mph N/A   Clear
10:35 AM 27.9 °F 16.3 °F 1.4 °F 32% 29.87 in 10.0 mi West 15.0 mph 19.6 mph N/A   Clear
10:55 AM 28.9 °F 16.9 °F 1.6 °F 31% 29.87 in 10.0 mi West 17.3 mph 21.9 mph N/A   Clear
11:15 AM 30.0 °F 19.1 °F 0.9 °F 29% 29.87 in 10.0 mi WNW 15.0 mph - N/A   Clear
11:35 AM 31.1 °F 19.3 °F 0.3 °F 27% 29.86 in 10.0 mi West 18.4 mph - N/A   Clear
11:55 AM 31.1 °F 20.1 °F 1.0 °F 28% 29.86 in 10.0 mi West 16.1 mph 24.2 mph N/A   Clear
12:15 PM 32.0 °F 21.6 °F 1.8 °F 28% 29.86 in 10.0 mi West 15.0 mph 20.7 mph N/A   Clear
12:35 PM 32.5 °F 22.7 °F 2.1 °F 28% 29.86 in 10.0 mi West 13.8 mph 20.7 mph N/A   Clear
12:55 PM 33.3 °F 24.1 °F 1.6 °F 26% 29.85 in 10.0 mi West 12.7 mph 23.0 mph N/A   Clear
1:15 PM 34.7 °F 25.1 °F 2.7 °F 26% 29.85 in 10.0 mi West 15.0 mph 23.0 mph N/A   Clear
1:35 PM 35.2 °F 25.8 °F 3.2 °F 26% 29.84 in 10.0 mi WNW 15.0 mph 23.0 mph N/A   Clear
1:55 PM 36.0 °F 27.5 °F 2.7 °F 25% 29.84 in 10.0 mi West 12.7 mph 21.9 mph N/A   Clear
2:15 PM 36.3 °F 28.9 °F 2.8 °F 25% 29.83 in 10.0 mi West 10.4 mph - N/A   Clear
2:35 PM 38.1 °F 29.8 °F 3.0 °F 23% 29.83 in 10.0 mi West 13.8 mph 23.0 mph N/A   Clear
2:55 PM 38.7 °F 30.9 °F 2.5 °F 22% 29.83 in 10.0 mi WNW 12.7 mph 21.9 mph N/A   Clear
3:15 PM 38.8 °F 30.4 °F 2.8 °F 22% 29.83 in 10.0 mi West 15.0 mph 21.9 mph N/A   Clear
3:35 PM 40.1 °F 32.7 °F 2.1 °F 20% 29.84 in 10.0 mi WNW 12.7 mph 18.4 mph N/A   Clear
3:55 PM 39.6 °F 32.1 °F 3.4 °F 22% 29.84 in 10.0 mi West 12.7 mph 25.3 mph N/A   Clear
4:15 PM 40.1 °F 32.0 °F 2.7 °F 21% 29.84 in 10.0 mi West 15.0 mph 20.7 mph N/A   Clear
4:35 PM 40.1 °F 34.1 °F 3.0 °F 21% 29.84 in 10.0 mi West 9.2 mph - N/A   Clear
4:55 PM 39.9 °F 33.4 °F 3.4 °F 22% 29.85 in 10.0 mi West 10.4 mph 17.3 mph N/A   Clear
5:15 PM 39.9 °F 32.9 °F 3.4 °F 22% 29.85 in 10.0 mi West 11.5 mph 16.1 mph N/A   Clear
5:35 PM 39.2 °F 31.2 °F 3.9 °F 23% 29.85 in 10.0 mi West 13.8 mph - N/A   Clear
5:55 PM 38.7 °F 32.9 °F 3.6 °F 23% 29.86 in 10.0 mi WNW 8.1 mph - N/A   Clear
6:15 PM 37.6 °F 30.5 °F 1.0 °F 22% 29.87 in 10.0 mi WNW 10.4 mph - N/A   Clear
6:35 PM 36.5 °F 29.7 °F 0.7 °F 22% 29.89 in 10.0 mi North 9.2 mph - N/A   Clear
6:55 PM 35.2 °F 28.8 °F 1.4 °F 24% 29.90 in 10.0 mi NNW 8.1 mph - N/A   Clear
7:20 PM 33.8 °F 28.6 °F 2.3 °F 26% 29.91 in 10.0 mi NNW 5.8 mph - N/A   Clear
7:35 PM 33.8 °F 28.6 °F 2.5 °F 27% 29.91 in 10.0 mi NNW 5.8 mph - N/A   Clear
7:55 PM 33.1 °F 28.7 °F 2.5 °F 27% 29.92 in 10.0 mi NNW 4.6 mph - N/A   Clear
8:15 PM 32.5 °F 27.1 °F 2.5 °F 28% 29.92 in 10.0 mi NNW 5.8 mph - N/A   Clear
8:35 PM 32.4 °F 26.9 °F 2.5 °F 28% 29.92 in 10.0 mi NNW 5.8 mph - N/A   Clear
8:55 PM 32.0 °F 27.5 °F 2.8 °F 29% 29.93 in 10.0 mi NNW 4.6 mph - N/A   Clear
9:15 PM 31.6 °F 26.0 °F 3.2 °F 30% 29.94 in 10.0 mi North 5.8 mph - N/A   Clear
9:35 PM 31.5 °F 25.8 °F 3.9 °F 31% 29.94 in 10.0 mi North 5.8 mph - N/A   Clear
9:55 PM 30.7 °F 24.1 °F 4.1 °F 32% 29.95 in 10.0 mi NNW 6.9 mph - N/A   Clear
10:15 PM 30.4 °F - 5.2 °F 34% 29.96 in 10.0 mi Calm Calm - N/A   Clear
10:35 PM 29.8 °F - 5.0 °F 35% 29.97 in 10.0 mi Calm Calm - N/A   Clear
10:55 PM 28.2 °F - 6.6 °F 40% 29.97 in 10.0 mi Calm Calm - N/A   Clear
11:15 PM 27.7 °F - 7.0 °F 42% 29.97 in 10.0 mi Calm Calm - N/A   Clear
11:35 PM 26.4 °F - 7.3 °F 45% 29.98 in 10.0 mi Calm Calm - N/A   Clear
11:55 PM 25.7 °F - 7.7 °F 47% 29.98 in 10.0 mi Calm Calm - N/A   Clear